Olathe, KS

11:52 PM CST on February 24, 2017 (GMT -0600)
Johnson County Executive

Weather History for KOJC - May, 2013

Change the Weather History Date:

Monday, May 20, 2013

  Actual Average Record
Temperature  
Mean Temperature 69 °F 66 °F  
Max Temperature 76 °F 76 °F 92 °F (1964)
Min Temperature 61 °F 56 °F 38 °F (1954)
Degree Days  
Heating Degree Days 0 2  
Month to date heating degree days 140 77  
Since 1 July heating degree days 5070 4908  
Cooling Degree Days 4 3  
Month to date cooling degree days 47 37  
Year to date cooling degree days 58 55  
Growing Degree Days 18 (Base 50)    
Moisture  
Dew Point 62 °F    
Average Humidity 85    
Maximum Humidity 97    
Minimum Humidity 73    
Precipitation  
Precipitation T in 0.19 in 0.99 in (2015)
Month to date precipitation 2.31 3.58  
Year to date precipitation 11.60 12.89  
Sea Level Pressure  
Sea Level Pressure 29.69 in    
Wind  
Wind Speed 8 mph (South)    
Max Wind Speed 15 mph    
Max Gust Speed 24 mph    
Visibility 10 miles    
Events Rain , Thunderstorm    
T = Trace of Precipitation, MM = Missing Value Source: NWS Daily Summary

Daily Weather History Graph

Daily Weather History Graph

Search for Another Location

Airport or City:

Trip Planner

Search our weather history database for the weather conditions in past years. The results will help you decide how hot, cold, wet, or windy it might be!

Date:

Astronomy

May. 20, 2013 Rise Set
Actual Time 6:02 AM CDT 8:29 PM CDT
Civil Twilight 5:31 AM CDT 8:59 PM CDT
Nautical Twilight 4:54 AM CDT 9:37 PM CDT
Astronomical Twilight 4:12 AM CDT 10:19 PM CDT
Moon 3:40 PM CDT (5/20) 2:54 AM CDT (5/20)
Length of Visible Light 15h 27m
Length of Day
14h 26m
Waxing Gibbous, 75% of the Moon is Illuminated
May 20
Waxing Gibbous
May 24
Full
May 31
Last Quarter
Jun 8
New
Jun 16
First Quarter

Hourly Weather History & Observations

Time (CDT) Temp. Dew Point Humidity Pressure Visibility Wind Dir Wind Speed Gust Speed Precip Events Conditions
12:53 AM 63.0 °F 60.1 °F 90% 29.68 in 10.0 mi Variable 5.8 mph 20.7 mph 0.01 in Rain Light Rain
1:00 AM 62.6 °F 60.8 °F 94% 29.70 in 10.0 mi South 9.2 mph 19.6 mph 0.00 in Rain , Thunderstorm Light Thunderstorms and Rain
1:16 AM 62.6 °F 59.0 °F 88% 29.64 in 10.0 mi Variable 3.5 mph - 0.00 in Rain , Thunderstorm Light Rain
1:36 AM 62.6 °F 59.0 °F 88% 29.67 in 10.0 mi South 5.8 mph - 0.00 in   Partly Cloudy
1:53 AM 61.0 °F 59.0 °F 93% 29.63 in 10.0 mi SSE 8.1 mph - 0.00 in   Clear
2:53 AM 61.0 °F 57.9 °F 90% 29.66 in 10.0 mi SSE 6.9 mph - N/A   Clear
3:53 AM 62.1 °F 57.9 °F 86% 29.68 in 10.0 mi South 15.0 mph 24.2 mph N/A   Clear
4:53 AM 62.1 °F 57.9 °F 86% 29.66 in 10.0 mi South 10.4 mph 21.9 mph N/A   Partly Cloudy
6:23 AM 60.8 °F 59.0 °F 94% 29.73 in 8.0 mi SSW 6.9 mph - N/A   Partly Cloudy
6:53 AM 61.0 °F 59.0 °F 93% 29.71 in 8.0 mi SSW 9.2 mph - N/A   Scattered Clouds
7:01 AM 60.8 °F 59.0 °F 94% 29.74 in 8.0 mi SSW 8.1 mph - N/A   Mostly Cloudy
7:53 AM 62.1 °F 60.1 °F 93% 29.72 in 9.0 mi South 10.4 mph - N/A   Overcast
8:27 AM 64.4 °F 60.8 °F 88% 29.74 in 10.0 mi SSW 11.5 mph - N/A   Scattered Clouds
8:53 AM 64.0 °F 60.1 °F 87% 29.73 in 10.0 mi SSW 6.9 mph - N/A   Partly Cloudy
9:53 AM 64.0 °F 60.1 °F 87% 29.75 in 10.0 mi SSW 6.9 mph - N/A   Mostly Cloudy
10:53 AM 68.0 °F 62.1 °F 81% 29.74 in 10.0 mi South 10.4 mph - N/A   Partly Cloudy
11:53 AM 70.0 °F 61.0 °F 73% 29.75 in 10.0 mi SSW 11.5 mph 21.9 mph N/A   Mostly Cloudy
12:24 PM 68.0 °F 60.8 °F 78% 29.77 in 10.0 mi South 9.2 mph - N/A   Overcast
12:53 PM 68.0 °F 61.0 °F 78% 29.75 in 10.0 mi South 5.8 mph - N/A   Overcast
1:53 PM 71.1 °F 63.0 °F 75% 29.73 in 10.0 mi SSE 10.4 mph - N/A   Overcast
2:53 PM 72.0 °F 64.9 °F 78% 29.70 in 10.0 mi SSE 10.4 mph - N/A   Overcast
3:53 PM 75.0 °F 66.9 °F 76% 29.67 in 10.0 mi SSE 6.9 mph - N/A   Overcast
4:44 PM 75.2 °F 66.2 °F 73% 29.67 in 10.0 mi South 5.8 mph - N/A   Partly Cloudy
4:53 PM 75.9 °F 66.9 °F 74% 29.65 in 10.0 mi SSE 6.9 mph - N/A   Clear
5:53 PM 75.9 °F 66.0 °F 71% 29.63 in 10.0 mi SSW 5.8 mph - N/A   Clear
6:53 PM 73.0 °F 66.0 °F 79% 29.62 in 10.0 mi SSE 8.1 mph - N/A   Clear
7:53 PM 70.0 °F 66.0 °F 87% 29.64 in 10.0 mi South 8.1 mph - N/A   Clear
9:53 PM 68.0 °F 64.9 °F 90% 29.67 in 10.0 mi SSW 5.8 mph - N/A   Clear
10:53 PM 66.0 °F 63.0 °F 90% 29.70 in 10.0 mi South 5.8 mph - N/A   Clear
11:53 PM 64.0 °F 62.1 °F 93% 29.68 in 10.0 mi SSW 4.6 mph - N/A   Clear